contact:dominique.lefevre@mio.osupytheas.fr, maurice.libes@osupytheas.fr, didier.mallarino@osupytheas.fr
Project:EMSO http://www.emso-fr.org/EMSO-France
Depth: 2436.0 m
Title:EMSO Ligure Ouest : Data MII capteur AQUADOPP
Date,Latitude,Longitude,X_East,Y_North,Z_Up,Amplitude_X,Amplitude_Y,Amplitude_Z,Batterie,SoundSpeed,Heading,Pitch,Roll,Pressure,TIS,Speed,Direction
, degrees North, degrees East, m.s-1, m.s-1,m.s-1, 1, 1, 1, Volt, m.s-1, degree, degree, degree, dbar, degree_C, m.s-1, degree
2023-03-10T00:04:03,42.805,6.029,-0.028,-0.012,-0.012,105.0,104.0,106.0,13.4,1505.2,316.7,-0.8,1.8,2471.313,13.29,0.03,246.8
2023-03-10T00:07:03,42.805,6.029,0.0,-0.012,0.0,106.0,105.0,103.0,13.3,1505.2,334.6,-0.7,1.8,2471.332,13.29,0.012,180.0
2023-03-10T00:10:03,42.805,6.029,0.0,-0.001,-0.014,105.0,105.0,104.0,13.4,1505.2,342.4,-0.8,1.8,2471.298,13.29,0.001,180.0
2023-03-10T00:13:03,42.805,6.029,-0.033,0.004,-0.026,107.0,105.0,105.0,13.4,1505.2,326.0,-0.7,1.8,2471.335,13.29,0.033,276.9
2023-03-10T00:16:03,42.805,6.029,-0.02,0.001,-0.011,105.0,105.0,105.0,13.4,1505.2,339.4,-0.8,1.8,2471.255,13.29,0.02,272.9
2023-03-10T00:19:03,42.805,6.029,-0.013,0.004,-0.024,105.0,105.0,105.0,13.3,1505.2,317.7,-0.8,1.8,2471.3,13.29,0.013,287.1
2023-03-10T00:22:03,42.805,6.029,-0.004,0.005,0.013,105.0,104.0,103.0,13.4,1505.2,329.4,-0.8,1.8,2471.273,13.29,0.006,321.3
2023-03-10T00:25:03,42.805,6.029,-0.013,0.021,0.001,107.0,105.0,104.0,13.4,1505.2,329.3,-0.8,1.8,2471.312,13.29,0.024,328.2
2023-03-10T00:28:03,42.805,6.029,-0.005,0.013,-0.021,105.0,107.0,104.0,13.4,1505.2,337.6,-0.7,1.8,2471.269,13.29,0.013,339.0
2023-03-10T00:31:03,42.805,6.029,0.0,-0.02,-0.024,106.0,105.0,106.0,13.4,1505.2,318.2,-0.7,1.8,2471.254,13.29,0.02,180.0
2023-03-10T00:34:03,42.805,6.029,-0.012,0.003,-0.036,104.0,106.0,105.0,13.4,1505.2,329.0,-0.8,1.8,2471.28,13.29,0.012,284.0
2023-03-10T00:37:03,42.805,6.029,-0.018,0.0,-0.039,105.0,105.0,103.0,13.4,1505.2,323.8,-0.8,1.8,2471.236,13.29,0.018,270.0
2023-03-10T00:40:03,42.805,6.029,-0.036,-0.018,-0.051,105.0,106.0,104.0,13.3,1505.2,317.7,-0.8,1.8,2471.288,13.29,0.04,243.4
2023-03-10T00:43:03,42.805,6.029,-0.032,-0.013,-0.017,106.0,105.0,104.0,13.3,1505.2,320.5,-0.7,1.8,2471.267,13.29,0.034,247.9
2023-03-10T00:46:03,42.805,6.029,-0.022,0.003,0.0,104.0,105.0,105.0,13.4,1505.2,322.0,-0.8,1.8,2471.266,13.29,0.022,277.8
2023-03-10T00:49:03,42.805,6.029,-0.019,-0.015,-0.047,107.0,104.0,103.0,13.3,1505.2,325.1,-0.8,1.8,2471.283,13.29,0.024,231.7
2023-03-10T00:52:03,42.805,6.029,-0.003,0.01,-0.019,106.0,106.0,104.0,13.4,1505.2,326.3,-0.8,1.8,2471.248,13.29,0.01,343.3
2023-03-10T00:55:03,42.805,6.029,-0.019,0.019,-0.001,106.0,104.0,105.0,13.4,1505.2,328.1,-0.8,1.8,2471.243,13.29,0.026,315.0
2023-03-10T00:58:03,42.805,6.029,-0.017,0.002,-0.039,105.0,105.0,104.0,13.3,1505.2,331.6,-0.8,1.8,2471.248,13.29,0.017,276.7
2023-03-10T01:04:03,42.805,6.029,-0.014,0.017,-0.017,108.0,106.0,106.0,13.4,1505.2,321.8,-0.8,1.8,2471.295,13.29,0.022,320.5
2023-03-10T01:07:03,42.805,6.029,-0.031,0.017,-0.024,105.0,105.0,103.0,13.4,1505.2,321.3,-0.8,1.8,2471.278,13.29,0.035,298.7
2023-03-10T01:10:03,42.805,6.029,-0.021,0.005,-0.011,106.0,105.0,104.0,13.4,1505.2,335.9,-0.8,1.8,2471.273,13.29,0.021,283.4
2023-03-10T01:13:03,42.805,6.029,-0.019,0.003,-0.014,107.0,106.0,104.0,13.4,1505.2,323.2,-0.7,1.8,2471.251,13.29,0.019,279.0
2023-03-10T01:16:03,42.805,6.029,-0.024,0.019,-0.037,105.0,105.0,104.0,13.3,1505.2,326.7,-0.7,1.8,2471.257,13.29,0.03,308.4
2023-03-10T01:19:03,42.805,6.029,-0.013,0.031,0.002,107.0,104.0,104.0,13.4,1505.2,332.2,-0.8,1.8,2471.263,13.29,0.033,337.3
2023-03-10T01:22:03,42.805,6.029,-0.013,0.007,-0.021,105.0,105.0,104.0,13.4,1505.2,324.6,-0.8,1.8,2471.244,13.29,0.014,298.3
2023-03-10T01:25:03,42.805,6.029,-0.022,-0.001,-0.016,106.0,107.0,103.0,13.4,1505.2,318.8,-0.8,1.8,2471.232,13.29,0.022,267.4
2023-03-10T01:28:03,42.805,6.029,-0.024,-0.01,-0.007,106.0,104.0,103.0,13.4,1505.2,332.0,-0.8,1.8,2471.263,13.29,0.026,247.4
2023-03-10T01:31:03,42.805,6.029,-0.028,-0.004,-0.014,107.0,108.0,105.0,13.4,1505.2,325.8,-0.7,1.8,2471.243,13.29,0.028,261.9
2023-03-10T01:34:03,42.805,6.029,-0.035,0.009,-0.046,105.0,105.0,103.0,13.4,1505.2,329.0,-0.8,1.8,2471.244,13.29,0.036,284.4
2023-03-10T01:37:03,42.805,6.029,-0.013,0.009,-0.025,105.0,105.0,104.0,13.4,1505.2,324.8,-0.7,1.8,2471.23,13.29,0.015,304.7
2023-03-10T01:40:03,42.805,6.029,-0.019,0.0,-0.036,105.0,103.0,105.0,13.3,1505.2,325.3,-0.8,1.8,2471.174,13.29,0.019,270.0
2023-03-10T01:43:03,42.805,6.029,-0.019,0.011,-0.056,105.0,104.0,103.0,13.4,1505.2,340.9,-0.8,1.9,2471.233,13.29,0.021,300.1
2023-03-10T01:46:03,42.805,6.029,-0.049,0.013,-0.017,105.0,106.0,104.0,13.4,1505.2,316.1,-0.8,1.8,2471.177,13.29,0.05,284.9
2023-03-10T01:49:03,42.805,6.029,-0.013,0.008,-0.02,106.0,104.0,104.0,13.4,1505.2,325.3,-0.8,1.8,2471.227,13.29,0.015,301.6
2023-03-10T01:52:03,42.805,6.029,-0.015,0.005,0.011,105.0,106.0,103.0,13.4,1505.2,328.2,-0.8,1.8,2471.231,13.29,0.015,288.4
2023-03-10T01:55:03,42.805,6.029,-0.022,0.004,-0.013,106.0,105.0,103.0,13.3,1505.2,326.5,-0.8,1.8,2471.222,13.29,0.022,280.3
2023-03-10T01:58:03,42.805,6.029,-0.019,0.019,-0.019,106.0,104.0,104.0,13.3,1505.2,340.2,-0.8,1.8,2471.207,13.29,0.026,315.0
2023-03-10T02:04:03,42.805,6.029,-0.01,0.013,-0.001,106.0,104.0,104.0,13.4,1505.2,331.4,-0.8,1.8,2471.28,13.29,0.016,322.4
2023-03-10T02:07:03,42.805,6.029,-0.016,0.027,0.031,105.0,104.0,105.0,13.4,1505.2,341.2,-0.8,1.8,2471.241,13.29,0.031,329.3
2023-03-10T02:10:03,42.805,6.029,-0.018,0.019,-0.007,105.0,105.0,104.0,13.4,1505.2,326.8,-0.8,1.8,2471.243,13.29,0.026,316.5
2023-03-10T02:13:03,42.805,6.029,-0.02,0.009,-0.024,106.0,106.0,105.0,13.4,1505.2,329.5,-0.7,1.8,2471.202,13.29,0.021,294.2
2023-03-10T02:16:03,42.805,6.029,-0.013,0.005,0.009,106.0,105.0,104.0,13.4,1505.2,318.4,-0.8,1.8,2471.242,13.29,0.013,291.0
2023-03-10T02:19:03,42.805,6.029,-0.016,0.013,-0.01,106.0,107.0,104.0,13.3,1505.2,332.9,-0.8,1.8,2471.238,13.29,0.02,309.1
2023-03-10T02:22:03,42.805,6.029,-0.017,0.005,-0.039,106.0,105.0,104.0,13.4,1505.2,337.0,-0.7,1.8,2471.187,13.29,0.017,286.4
2023-03-10T02:25:03,42.805,6.029,-0.033,0.032,0.006,105.0,106.0,103.0,13.4,1505.2,338.5,-0.8,1.8,2471.243,13.29,0.045,314.1
2023-03-10T02:28:03,42.805,6.029,-0.012,0.015,-0.03,106.0,105.0,103.0,13.3,1505.2,318.3,-0.7,1.8,2471.221,13.29,0.019,321.3
2023-03-10T02:31:03,42.805,6.029,-0.017,0.016,-0.054,106.0,106.0,104.0,13.3,1505.2,330.6,-0.8,1.9,2471.206,13.29,0.023,313.3
2023-03-10T02:34:03,42.805,6.029,-0.02,0.023,-0.012,105.0,106.0,104.0,13.4,1505.2,330.0,-0.7,1.8,2471.214,13.29,0.03,319.0
2023-03-10T02:37:03,42.805,6.029,-0.02,0.024,-0.024,105.0,106.0,102.0,13.4,1505.2,319.3,-0.8,1.8,2471.206,13.29,0.031,320.2
2023-03-10T02:40:03,42.805,6.029,-0.029,0.023,-0.022,104.0,105.0,102.0,13.3,1505.2,325.7,-0.8,1.8,2471.22,13.29,0.037,308.4
2023-03-10T02:43:03,42.805,6.029,-0.009,0.007,-0.026,106.0,105.0,103.0,13.3,1505.2,331.6,-0.7,1.8,2471.21,13.29,0.011,307.9
2023-03-10T02:46:03,42.805,6.029,-0.026,0.022,0.007,105.0,103.0,104.0,13.3,1505.2,323.2,-0.8,1.8,2471.155,13.29,0.034,310.2
2023-03-10T02:49:03,42.805,6.029,0.0,0.017,-0.011,104.0,105.0,103.0,13.4,1505.2,328.8,-0.8,1.8,2471.234,13.29,0.017,0.0
2023-03-10T02:52:03,42.805,6.029,-0.017,0.03,-0.001,106.0,104.0,104.0,13.3,1505.2,333.8,-0.8,1.8,2471.187,13.29,0.034,330.5
2023-03-10T02:55:03,42.805,6.029,-0.01,0.027,-0.006,104.0,104.0,104.0,13.3,1505.2,328.3,-0.7,1.8,2471.226,13.29,0.028,339.7
2023-03-10T02:58:03,42.805,6.029,-0.01,0.01,-0.024,104.0,104.0,103.0,13.4,1505.2,321.4,-0.7,1.8,2471.202,13.29,0.014,315.0
2023-03-10T03:04:03,42.805,6.029,-0.029,0.006,-0.025,103.0,104.0,103.0,13.4,1505.2,318.3,-0.8,1.8,2471.248,13.29,0.029,281.7
2023-03-10T03:07:03,42.805,6.029,-0.016,0.024,-0.024,105.0,106.0,103.0,13.4,1505.2,325.0,-0.8,1.8,2471.258,13.29,0.028,326.3
2023-03-10T03:10:03,42.805,6.029,-0.003,0.018,-0.032,106.0,106.0,103.0,13.4,1505.2,339.5,-0.8,1.8,2471.229,13.29,0.018,350.5
2023-03-10T03:13:03,42.805,6.029,-0.015,0.019,-0.013,105.0,104.0,104.0,13.3,1505.2,322.5,-0.8,1.8,2471.224,13.29,0.024,321.7
2023-03-10T03:16:03,42.805,6.029,0.001,0.026,-0.02,104.0,106.0,104.0,13.3,1505.2,332.0,-0.8,1.8,2471.192,13.29,0.026,2.2
2023-03-10T03:19:03,42.805,6.029,-0.001,0.001,-0.061,105.0,105.0,104.0,13.4,1505.2,341.5,-0.8,1.8,2471.204,13.29,0.001,315.0
2023-03-10T03:22:03,42.805,6.029,-0.026,0.032,-0.03,105.0,104.0,104.0,13.4,1505.2,324.0,-0.8,1.8,2471.209,13.29,0.041,320.9
2023-03-10T03:25:03,42.805,6.029,-0.022,0.021,-0.023,108.0,106.0,103.0,13.4,1505.2,325.7,-0.8,1.8,2471.238,13.29,0.03,313.7
2023-03-10T03:28:03,42.805,6.029,-0.013,0.007,-0.01,105.0,105.0,101.0,13.4,1505.2,334.1,-0.7,1.8,2471.192,13.29,0.014,298.3
2023-03-10T03:31:03,42.805,6.029,-0.015,0.001,-0.023,104.0,105.0,103.0,13.4,1505.2,332.3,-0.8,1.8,2471.25,13.29,0.015,273.8
2023-03-10T03:34:03,42.805,6.029,-0.03,0.018,-0.031,105.0,104.0,103.0,13.3,1505.2,317.2,-0.7,1.8,2471.184,13.29,0.034,301.0
2023-03-10T03:37:03,42.805,6.029,-0.013,0.032,-0.043,106.0,106.0,102.0,13.4,1505.2,331.6,-0.8,1.8,2471.202,13.29,0.034,337.9
2023-03-10T03:40:03,42.805,6.029,-0.026,0.026,-0.017,105.0,105.0,104.0,13.3,1505.2,331.1,-0.8,1.8,2471.202,13.29,0.036,315.0
2023-03-10T03:43:03,42.805,6.029,-0.007,0.0,-0.006,105.0,107.0,104.0,13.3,1505.2,326.3,-0.8,1.8,2471.216,13.29,0.007,270.0
2023-03-10T03:46:03,42.805,6.029,-0.014,0.022,-0.011,106.0,106.0,104.0,13.4,1505.2,321.2,-0.8,1.8,2471.196,13.29,0.026,327.5
2023-03-10T03:49:03,42.805,6.029,-0.023,0.012,-0.046,105.0,104.0,103.0,13.4,1505.2,331.1,-0.8,1.8,2471.196,13.29,0.025,297.6
2023-03-10T03:52:03,42.805,6.029,-0.009,0.018,-0.048,104.0,104.0,103.0,13.3,1505.2,330.1,-0.8,1.8,2471.176,13.29,0.02,333.4
2023-03-10T03:55:03,42.805,6.029,0.004,0.027,-0.022,105.0,104.0,103.0,13.4,1505.2,327.3,-0.8,1.8,2471.2,13.29,0.027,8.4
2023-03-10T03:58:03,42.805,6.029,-0.006,0.024,-0.015,107.0,106.0,103.0,13.3,1505.2,320.3,-0.8,1.8,2471.178,13.29,0.024,346.0
2023-03-10T04:04:03,42.805,6.029,-0.014,0.028,-0.032,105.0,105.0,104.0,13.4,1505.2,333.8,-0.8,1.8,2471.236,13.29,0.031,333.4
2023-03-10T04:07:03,42.805,6.029,0.001,0.017,-0.024,105.0,106.0,103.0,13.4,1505.2,322.0,-0.8,1.9,2471.299,13.29,0.017,3.4
2023-03-10T04:10:03,42.805,6.029,-0.018,0.017,0.022,105.0,105.0,104.0,13.4,1505.2,326.7,-0.7,1.8,2471.245,13.29,0.024,313.4
2023-03-10T04:13:03,42.805,6.029,-0.029,0.01,-0.027,104.0,105.0,104.0,13.3,1505.2,331.0,-0.8,1.8,2471.265,13.29,0.03,289.0
2023-03-10T04:16:03,42.805,6.029,-0.015,0.008,-0.012,104.0,105.0,103.0,13.4,1505.2,322.7,-0.7,1.8,2471.251,13.29,0.017,298.1
2023-03-10T04:19:03,42.805,6.029,-0.023,0.012,-0.024,104.0,104.0,103.0,13.4,1505.2,329.3,-0.7,1.8,2471.234,13.29,0.025,297.6
2023-03-10T04:22:03,42.805,6.029,-0.008,0.002,-0.014,105.0,105.0,103.0,13.4,1505.2,338.9,-0.8,1.8,2471.212,13.29,0.008,284.0
2023-03-10T04:25:03,42.805,6.029,-0.013,0.022,-0.013,104.0,105.0,104.0,13.3,1505.2,329.8,-0.7,1.8,2471.263,13.29,0.025,329.4
2023-03-10T04:28:03,42.805,6.029,-0.013,0.021,0.0,105.0,105.0,103.0,13.4,1505.2,336.2,-0.7,1.8,2471.211,13.29,0.024,328.2
2023-03-10T04:31:03,42.805,6.029,-0.014,0.02,0.003,106.0,105.0,104.0,13.4,1505.2,339.6,-0.7,1.8,2471.218,13.29,0.024,325.0
2023-03-10T04:34:03,42.805,6.029,-0.026,0.02,-0.011,105.0,104.0,104.0,13.4,1505.2,319.4,-0.7,1.8,2471.198,13.29,0.032,307.6
2023-03-10T04:37:03,42.805,6.029,-0.01,0.013,-0.035,107.0,104.0,103.0,13.4,1505.2,332.5,-0.8,1.8,2471.214,13.29,0.016,322.4
2023-03-10T04:40:03,42.805,6.029,-0.043,0.017,-0.015,104.0,104.0,103.0,13.4,1505.2,332.1,-0.8,1.8,2471.217,13.29,0.046,291.6
2023-03-10T04:43:03,42.805,6.029,-0.006,0.016,-0.014,105.0,105.0,103.0,13.3,1505.2,332.0,-0.8,1.8,2471.235,13.29,0.017,339.4
2023-03-10T04:46:03,42.805,6.029,0.0,-0.02,-0.041,103.0,104.0,103.0,13.4,1505.2,316.8,-0.7,1.8,2471.243,13.29,0.02,180.0
2023-03-10T04:49:03,42.805,6.029,-0.012,0.025,-0.005,105.0,104.0,104.0,13.4,1505.2,317.7,-0.7,1.8,2471.266,13.29,0.027,334.4
2023-03-10T04:52:03,42.805,6.029,-0.017,0.012,-0.047,105.0,105.0,103.0,13.3,1505.2,324.1,-0.8,1.8,2471.254,13.29,0.02,305.2
2023-03-10T04:55:03,42.805,6.029,-0.002,0.015,-0.028,104.0,106.0,103.0,13.3,1505.2,325.7,-0.8,1.8,2471.246,13.29,0.015,352.4
2023-03-10T04:58:03,42.805,6.029,-0.029,-0.001,-0.027,105.0,104.0,103.0,13.3,1505.2,319.4,-0.8,1.8,2471.237,13.29,0.029,268.0
2023-03-10T05:04:03,42.805,6.029,-0.029,0.025,-0.016,105.0,105.0,103.0,13.3,1505.2,327.7,-0.8,1.8,2471.253,13.29,0.038,310.8
2023-03-10T05:07:03,42.805,6.029,-0.014,0.022,-0.031,105.0,103.0,103.0,13.3,1505.2,335.8,-0.8,1.8,2471.261,13.29,0.026,327.5
2023-03-10T05:10:03,42.805,6.029,-0.008,0.019,-0.015,105.0,104.0,103.0,13.3,1505.2,340.4,-0.8,1.8,2471.287,13.29,0.02,337.2
2023-03-10T05:13:03,42.805,6.029,-0.013,0.017,-0.016,104.0,103.0,104.0,13.4,1505.2,330.1,-0.8,1.8,2471.285,13.29,0.021,322.6
2023-03-10T05:16:03,42.805,6.029,-0.007,0.017,-0.02,105.0,104.0,103.0,13.3,1505.2,339.9,-0.8,1.8,2471.297,13.29,0.018,337.6
2023-03-10T05:19:03,42.805,6.029,-0.025,0.024,0.005,104.0,104.0,104.0,13.4,1505.2,318.3,-0.8,1.8,2471.259,13.29,0.034,313.8
2023-03-10T05:22:03,42.805,6.029,-0.009,0.008,-0.021,105.0,104.0,103.0,13.4,1505.2,332.1,-0.8,1.8,2471.253,13.29,0.012,311.6
2023-03-10T05:25:03,42.805,6.029,-0.016,0.016,-0.008,105.0,104.0,104.0,13.4,1505.2,331.3,-0.7,1.8,2471.293,13.29,0.022,315.0
2023-03-10T05:28:03,42.805,6.029,-0.003,0.0,0.0,105.0,104.0,104.0,13.3,1505.2,335.5,-0.8,1.8,2471.242,13.29,0.003,270.0
2023-03-10T05:31:03,42.805,6.029,-0.018,0.021,-0.011,105.0,105.0,103.0,13.4,1505.2,331.8,-0.7,1.8,2471.235,13.29,0.027,319.4
2023-03-10T05:34:03,42.805,6.029,0.004,0.006,0.004,105.0,105.0,104.0,13.3,1505.2,325.7,-0.8,1.8,2471.287,13.29,0.007,33.7
2023-03-10T05:37:03,42.805,6.029,-0.003,0.013,-0.026,107.0,104.0,103.0,13.4,1505.2,327.8,-0.8,1.8,2471.272,13.29,0.013,347.0
2023-03-10T05:40:03,42.805,6.029,-0.027,0.01,-0.038,105.0,104.0,103.0,13.4,1505.2,334.3,-0.8,1.8,2471.299,13.29,0.028,290.3
2023-03-10T05:43:03,42.805,6.029,-0.026,0.018,-0.009,105.0,106.0,103.0,13.4,1505.2,326.3,-0.8,1.8,2471.25,13.29,0.031,304.7
2023-03-10T05:46:03,42.805,6.029,-0.013,0.003,-0.008,106.0,104.0,106.0,13.4,1505.2,333.0,-0.8,1.8,2471.296,13.29,0.013,283.0
2023-03-10T05:49:03,42.805,6.029,-0.015,0.012,-0.021,105.0,105.0,104.0,13.4,1505.2,326.5,-0.7,1.9,2471.292,13.29,0.019,308.7
2023-03-10T05:52:03,42.805,6.029,-0.004,0.0,-0.01,105.0,104.0,104.0,13.3,1505.2,333.8,-0.7,1.8,2471.278,13.29,0.004,270.0
2023-03-10T05:55:03,42.805,6.029,-0.034,0.021,-0.006,104.0,104.0,103.0,13.4,1505.2,320.5,-0.7,1.8,2471.262,13.29,0.039,301.7
2023-03-10T05:58:03,42.805,6.029,-0.003,0.015,-0.001,105.0,104.0,104.0,13.3,1505.2,323.4,-0.8,1.8,2471.312,13.29,0.015,348.7
2023-03-10T06:04:03,42.805,6.029,0.017,0.016,0.003,104.0,105.0,104.0,13.3,1505.2,325.4,-0.8,1.8,2471.349,13.29,0.023,46.7
2023-03-10T06:07:03,42.805,6.029,-0.006,0.027,0.008,105.0,107.0,104.0,13.3,1505.2,332.9,-0.8,1.8,2471.341,13.29,0.027,347.5
2023-03-10T06:10:03,42.805,6.029,-0.004,0.009,-0.004,106.0,105.0,104.0,13.4,1505.2,326.8,-0.7,1.8,2471.358,13.29,0.009,336.0
2023-03-10T06:13:03,42.805,6.029,-0.013,0.016,-0.043,106.0,104.0,103.0,13.3,1505.2,322.5,-0.8,1.8,2471.315,13.29,0.02,320.9
2023-03-10T06:16:03,42.805,6.029,-0.018,0.018,-0.007,104.0,104.0,103.0,13.4,1505.2,330.7,-0.7,1.8,2471.293,13.29,0.025,315.0
2023-03-10T06:19:03,42.805,6.029,-0.013,-0.001,-0.025,104.0,103.0,104.0,13.4,1505.2,321.4,-0.7,1.8,2471.339,13.29,0.013,265.6
2023-03-10T06:22:03,42.805,6.029,-0.005,0.002,-0.004,104.0,106.0,103.0,13.4,1505.2,330.1,-0.8,1.8,2471.348,13.29,0.005,291.8
2023-03-10T06:25:03,42.805,6.029,-0.028,0.011,-0.02,104.0,105.0,103.0,13.3,1505.2,322.2,-0.8,1.9,2471.288,13.29,0.03,291.4
2023-03-10T06:28:03,42.805,6.029,-0.012,0.021,-0.016,105.0,104.0,104.0,13.4,1505.2,332.1,-0.7,1.8,2471.325,13.29,0.024,330.3
2023-03-10T06:31:03,42.805,6.029,-0.008,0.011,-0.035,105.0,105.0,103.0,13.4,1505.2,333.8,-0.8,1.8,2471.365,13.29,0.013,324.0
2023-03-10T06:34:03,42.805,6.029,-0.034,0.031,-0.031,104.0,104.0,104.0,13.4,1505.2,332.9,-0.7,1.8,2471.367,13.29,0.046,312.4
2023-03-10T06:37:03,42.805,6.029,-0.028,0.029,-0.014,105.0,104.0,103.0,13.3,1505.2,324.1,-0.8,1.8,2471.365,13.29,0.04,316.0
2023-03-10T06:40:03,42.805,6.029,-0.029,0.015,-0.03,105.0,103.0,103.0,13.4,1505.2,332.5,-0.7,1.8,2471.335,13.29,0.032,297.4
2023-03-10T06:43:03,42.805,6.029,-0.01,0.018,-0.018,106.0,103.0,104.0,13.4,1505.2,332.1,-0.8,1.8,2471.349,13.29,0.02,330.9
2023-03-10T06:46:03,42.805,6.029,-0.003,0.008,-0.017,106.0,107.0,102.0,13.4,1505.2,330.6,-0.8,1.8,2471.365,13.29,0.008,339.4
2023-03-10T06:49:03,42.805,6.029,-0.017,0.02,0.0,107.0,104.0,102.0,13.3,1505.2,332.6,-0.8,1.8,2471.36,13.29,0.026,319.6
2023-03-10T06:52:03,42.805,6.029,-0.015,0.011,-0.012,105.0,104.0,104.0,13.4,1505.2,325.7,-0.8,1.9,2471.343,13.29,0.018,306.3
2023-03-10T06:55:03,42.805,6.029,-0.016,0.023,-0.021,105.0,104.0,103.0,13.3,1505.2,332.1,-0.7,1.8,2471.358,13.29,0.028,325.2
2023-03-10T06:58:03,42.805,6.029,-0.017,0.005,-0.001,103.0,105.0,104.0,13.4,1505.2,320.9,-0.8,1.8,2471.344,13.29,0.017,286.4
2023-03-10T07:04:03,42.805,6.029,-0.003,0.025,-0.012,104.0,104.0,103.0,13.4,1505.2,331.6,-0.8,1.8,2471.466,13.29,0.025,353.2
2023-03-10T07:07:03,42.805,6.029,-0.01,0.0,-0.025,105.0,104.0,104.0,13.4,1505.2,329.7,-0.7,1.8,2471.403,13.29,0.01,270.0
2023-03-10T07:10:03,42.805,6.029,-0.014,0.027,0.001,104.0,104.0,103.0,13.4,1505.2,323.6,-0.8,1.8,2471.399,13.29,0.03,332.6
2023-03-10T07:13:03,42.805,6.029,0.003,0.02,-0.005,103.0,105.0,103.0,13.4,1505.2,322.8,-0.8,1.8,2471.418,13.29,0.02,8.5
2023-03-10T07:16:03,42.805,6.029,-0.041,0.028,0.011,106.0,106.0,104.0,13.3,1505.2,321.7,-0.8,1.8,2471.425,13.29,0.049,304.3
2023-03-10T07:19:03,42.805,6.029,-0.006,0.036,-0.021,106.0,103.0,103.0,13.4,1505.2,332.5,-0.8,1.8,2471.378,13.29,0.036,350.5
2023-03-10T07:22:03,42.805,6.029,0.001,0.032,-0.011,105.0,104.0,104.0,13.3,1505.2,324.9,-0.8,1.8,2471.397,13.29,0.032,1.8
2023-03-10T07:25:03,42.805,6.029,-0.007,0.021,-0.021,107.0,104.0,103.0,13.4,1505.2,335.8,-0.8,1.8,2471.377,13.29,0.022,341.6
2023-03-10T07:28:03,42.805,6.029,-0.01,0.035,-0.006,106.0,104.0,103.0,13.4,1505.2,329.3,-0.8,1.8,2471.371,13.29,0.036,344.1
2023-03-10T07:31:03,42.805,6.029,-0.003,0.007,-0.05,105.0,104.0,102.0,13.4,1505.2,322.3,-0.8,1.8,2471.411,13.29,0.007,336.8
2023-03-10T07:34:03,42.805,6.029,-0.032,0.037,0.005,104.0,105.0,103.0,13.4,1505.2,330.1,-0.7,1.8,2471.355,13.29,0.048,319.1
2023-03-10T07:37:03,42.805,6.029,-0.017,0.02,-0.03,103.0,105.0,103.0,13.3,1505.2,331.0,-0.7,1.8,2471.383,13.29,0.026,319.6
2023-03-10T07:40:03,42.805,6.029,-0.029,0.02,-0.015,104.0,104.0,103.0,13.4,1505.2,325.6,-0.8,1.8,2471.421,13.29,0.035,304.6
2023-03-10T07:43:03,42.805,6.029,0.002,0.008,-0.001,104.0,103.0,103.0,13.3,1505.2,326.3,-0.8,1.8,2471.406,13.29,0.008,14.0
2023-03-10T07:46:03,42.805,6.029,-0.014,0.023,-0.019,105.0,104.0,102.0,13.3,1505.2,340.9,-0.8,1.8,2471.395,13.29,0.026,328.7
2023-03-10T07:49:03,42.805,6.029,-0.027,0.034,-0.017,105.0,105.0,102.0,13.4,1505.2,319.9,-0.8,1.8,2471.402,13.29,0.043,321.5
2023-03-10T07:52:03,42.805,6.029,-0.006,0.0,-0.03,104.0,104.0,103.0,13.3,1505.2,322.0,-0.8,1.8,2471.423,13.29,0.006,270.0
2023-03-10T07:55:03,42.805,6.029,-0.023,0.01,-0.009,106.0,105.0,104.0,13.3,1505.2,318.9,-0.8,1.8,2471.398,13.29,0.025,293.5
2023-03-10T07:58:03,42.805,6.029,-0.016,0.037,-0.016,106.0,104.0,104.0,13.4,1505.2,330.2,-0.8,1.8,2471.395,13.29,0.04,336.6
2023-03-10T08:04:03,42.805,6.029,-0.023,0.016,-0.033,105.0,106.0,104.0,13.4,1505.2,333.8,-0.8,1.8,2471.421,13.29,0.028,304.8
2023-03-10T08:07:03,42.805,6.029,0.002,0.017,-0.009,106.0,106.0,103.0,13.4,1505.2,333.4,-0.7,1.8,2471.452,13.29,0.017,6.7
2023-03-10T08:10:03,42.805,6.029,-0.028,0.008,-0.033,106.0,104.0,104.0,13.4,1505.2,328.8,-0.7,1.8,2471.45,13.29,0.029,285.9
2023-03-10T08:13:03,42.805,6.029,-0.012,0.001,-0.018,105.0,106.0,104.0,13.3,1505.2,329.9,-0.8,1.8,2471.417,13.29,0.012,274.8
2023-03-10T08:16:03,42.805,6.029,-0.026,0.008,-0.016,106.0,104.0,103.0,13.3,1505.2,321.4,-0.7,1.8,2471.438,13.29,0.027,287.1
2023-03-10T08:19:03,42.805,6.029,0.001,0.025,-0.012,104.0,104.0,102.0,13.3,1505.2,326.8,-0.8,1.8,2471.428,13.29,0.025,2.3
2023-03-10T08:22:03,42.805,6.029,-0.015,0.006,-0.01,105.0,104.0,104.0,13.4,1505.2,316.8,-0.8,1.8,2471.42,13.29,0.016,291.8
2023-03-10T08:25:03,42.805,6.029,-0.024,0.014,-0.013,104.0,104.0,103.0,13.3,1505.2,326.0,-0.8,1.8,2471.43,13.29,0.027,300.3
2023-03-10T08:28:03,42.805,6.029,-0.021,0.024,0.0,105.0,103.0,103.0,13.3,1505.2,328.8,-0.8,1.8,2471.446,13.29,0.031,318.8
2023-03-10T08:31:03,42.805,6.029,-0.012,0.013,-0.006,104.0,106.0,104.0,13.4,1505.2,322.5,-0.8,1.8,2471.398,13.29,0.017,317.3
2023-03-10T08:34:03,42.805,6.029,-0.029,0.014,-0.003,105.0,104.0,104.0,13.4,1505.2,323.9,-0.8,1.8,2471.412,13.29,0.032,295.8
2023-03-10T08:37:03,42.805,6.029,-0.008,-0.013,0.002,106.0,105.0,104.0,13.4,1505.2,323.4,-0.7,1.8,2471.431,13.29,0.015,211.6
2023-03-10T08:40:03,42.805,6.029,0.001,0.005,-0.026,104.0,104.0,103.0,13.3,1505.2,322.5,-0.8,1.8,2471.417,13.29,0.005,11.3
2023-03-10T08:43:03,42.805,6.029,0.004,0.026,-0.001,104.0,103.0,103.0,13.4,1505.2,330.2,-0.7,1.8,2471.389,13.29,0.026,8.7
2023-03-10T08:46:03,42.805,6.029,-0.011,0.014,-0.017,104.0,103.0,104.0,13.3,1505.2,322.7,-0.8,1.8,2471.46,13.29,0.017,321.8
2023-03-10T08:49:03,42.805,6.029,-0.023,0.024,-0.021,104.0,104.0,103.0,13.4,1505.2,324.0,-0.7,1.8,2471.413,13.29,0.033,316.2
2023-03-10T08:52:03,42.805,6.029,-0.016,0.016,-0.022,104.0,105.0,102.0,13.3,1505.2,340.3,-0.7,1.8,2471.41,13.29,0.022,315.0
2023-03-10T08:55:03,42.805,6.029,-0.017,-0.005,-0.018,105.0,104.0,104.0,13.4,1505.2,326.0,-0.8,1.8,2471.42,13.29,0.017,253.6
2023-03-10T08:58:03,42.805,6.029,-0.024,0.05,0.051,104.0,104.0,103.0,13.4,1505.2,321.0,-0.8,1.8,2471.454,13.29,0.055,334.4
2023-03-10T09:04:03,42.805,6.029,-0.032,0.027,-0.02,104.0,104.0,104.0,13.4,1505.2,322.7,-0.8,1.8,2471.484,13.29,0.041,310.2
2023-03-10T09:07:03,42.805,6.029,-0.007,0.013,0.002,106.0,106.0,104.0,13.3,1505.2,320.6,-0.8,1.8,2471.468,13.29,0.014,331.7
2023-03-10T09:10:03,42.805,6.029,-0.011,0.011,0.0,105.0,102.0,104.0,13.4,1505.2,328.8,-0.8,1.8,2471.46,13.29,0.015,315.0
2023-03-10T09:13:03,42.805,6.029,-0.033,0.019,-0.028,105.0,105.0,103.0,13.3,1505.2,330.3,-0.8,1.8,2471.492,13.29,0.038,299.9
2023-03-10T09:16:03,42.805,6.029,-0.013,0.032,-0.01,106.0,104.0,104.0,13.3,1505.2,324.9,-0.8,1.8,2471.42,13.29,0.034,337.9
2023-03-10T09:19:03,42.805,6.029,-0.011,0.003,-0.037,104.0,103.0,103.0,13.4,1505.2,321.6,-0.8,1.8,2471.439,13.29,0.011,285.3
2023-03-10T09:22:03,42.805,6.029,-0.018,0.024,-0.012,106.0,105.0,104.0,13.4,1505.2,327.0,-0.8,1.8,2471.453,13.29,0.03,323.1
2023-03-10T09:25:03,42.805,6.029,-0.018,0.016,0.007,104.0,104.0,104.0,13.3,1505.2,332.2,-0.8,1.8,2471.412,13.29,0.024,311.6
2023-03-10T09:28:03,42.805,6.029,-0.013,0.015,-0.028,106.0,104.0,103.0,13.4,1505.2,322.0,-0.8,1.8,2471.435,13.29,0.019,319.1
2023-03-10T09:31:03,42.805,6.029,0.0,0.016,-0.016,105.0,104.0,104.0,13.4,1505.2,320.9,-0.8,1.8,2471.445,13.29,0.016,0.0
2023-03-10T09:34:03,42.805,6.029,0.002,0.018,-0.014,105.0,105.0,104.0,13.3,1505.2,325.4,-0.8,1.8,2471.426,13.29,0.018,6.3
2023-03-10T09:37:03,42.805,6.029,-0.015,0.005,0.007,104.0,104.0,104.0,13.4,1505.2,323.4,-0.8,1.8,2471.421,13.29,0.015,288.4
2023-03-10T09:40:03,42.805,6.029,-0.014,0.015,-0.007,104.0,104.0,103.0,13.4,1505.2,337.6,-0.8,1.8,2471.443,13.29,0.02,317.0
2023-03-10T09:43:03,42.805,6.029,-0.002,0.011,-0.019,106.0,104.0,105.0,13.4,1505.2,329.8,-0.8,1.8,2471.399,13.29,0.011,349.7
2023-03-10T09:46:03,42.805,6.029,-0.014,0.008,-0.044,105.0,102.0,103.0,13.4,1505.2,327.1,-0.8,1.8,2471.385,13.29,0.016,299.7
2023-03-10T09:49:03,42.805,6.029,-0.024,0.021,-0.016,103.0,105.0,103.0,13.4,1505.2,326.3,-0.7,1.8,2471.412,13.29,0.031,311.2
2023-03-10T09:52:03,42.805,6.029,-0.022,0.011,-0.011,106.0,105.0,103.0,13.3,1505.2,320.5,-0.7,1.8,2471.43,13.29,0.024,296.6
2023-03-10T09:55:03,42.805,6.029,-0.013,0.012,-0.014,106.0,105.0,103.0,13.3,1505.2,329.1,-0.8,1.8,2471.407,13.29,0.017,312.7